Time,TemperatureF,DewpointF,PressureIn,WindDirection,WindDirectionDegrees,WindSpeedMPH,WindSpeedGustMPH,Humidity,HourlyPrecipIn,Conditions,Clouds,dailyrainin,SoftwareType,DateUTC
2013-04-01 00:02:00,41.0,29.0,-100.00,NNW,330,0.0,0.0,62,-99.99,,,-99.99,,2013-04-01 05:02:00,
2013-04-01 00:12:00,40.0,29.0,-100.00,NW,325,0.0,0.0,63,-99.99,,,-99.99,,2013-04-01 05:12:00,
2013-04-01 00:22:00,40.0,29.0,-100.00,NNW,330,0.0,0.0,63,-99.99,,,-99.99,,2013-04-01 05:22:00,
2013-04-01 00:32:00,40.0,29.0,-100.00,NNW,330,0.0,0.0,63,-99.99,,,-99.99,,2013-04-01 05:32:00,
2013-04-01 00:42:00,40.0,28.0,-100.00,North,350,0.0,0.0,61,-99.99,,,-99.99,,2013-04-01 05:42:00,
2013-04-01 00:53:00,40.0,28.0,-100.00,NNW,330,0.0,0.0,61,-99.99,,,-99.99,,2013-04-01 05:53:00,
2013-04-01 01:02:00,40.0,28.0,-100.00,NNW,330,0.0,0.0,61,-99.99,,,-99.99,,2013-04-01 06:02:00,
2013-04-01 01:12:00,40.0,28.0,-100.00,North,0,0.0,0.0,62,-99.99,,,-99.99,,2013-04-01 06:12:00,
2013-04-01 01:23:00,40.0,28.0,-100.00,NNW,335,0.0,0.0,62,-99.99,,,-99.99,,2013-04-01 06:23:00,
2013-04-01 01:33:00,40.0,28.0,-100.00,NNW,335,0.0,0.0,62,-99.99,,,-99.99,,2013-04-01 06:33:00,
2013-04-01 01:43:00,39.0,26.0,-100.00,North,350,0.0,0.0,59,-99.99,,,-99.99,,2013-04-01 06:43:00,
2013-04-01 01:53:00,39.0,26.0,-100.00,North,350,0.0,0.0,59,-99.99,,,-99.99,,2013-04-01 06:53:00,
2013-04-01 02:02:00,39.0,26.0,-100.00,North,350,0.0,0.0,59,-99.99,,,-99.99,,2013-04-01 07:02:00,
2013-04-01 02:12:00,39.0,26.0,-100.00,North,0,0.0,0.0,59,-99.99,,,-99.99,,2013-04-01 07:12:00,
2013-04-01 02:22:00,38.0,25.0,-100.00,NNW,340,0.0,0.0,59,-99.99,,,-99.99,,2013-04-01 07:22:00,
2013-04-01 02:32:00,38.0,25.0,-100.00,NNW,340,0.0,0.0,59,-99.99,,,-99.99,,2013-04-01 07:32:00,
2013-04-01 02:42:00,37.0,24.0,-100.00,North,0,0.0,0.0,59,-99.99,,,-99.99,,2013-04-01 07:42:00,
2013-04-01 02:53:00,37.0,24.0,-100.00,NNW,340,0.0,0.0,60,-99.99,,,-99.99,,2013-04-01 07:53:00,
2013-04-01 03:03:00,37.0,24.0,-100.00,NNW,340,0.0,0.0,60,-99.99,,,-99.99,,2013-04-01 08:03:00,
2013-04-01 03:12:00,37.0,24.0,-100.00,NNW,345,0.0,0.0,60,-99.99,,,-99.99,,2013-04-01 08:12:00,
2013-04-01 03:22:00,36.0,24.0,-100.00,NNW,345,0.0,0.0,60,-99.99,,,-99.99,,2013-04-01 08:22:00,
2013-04-01 03:32:00,36.0,24.0,-100.00,NNW,345,0.0,0.0,60,-99.99,,,-99.99,,2013-04-01 08:32:00,
2013-04-01 03:43:00,36.0,23.0,-100.00,NNW,330,0.0,0.0,59,-99.99,,,-99.99,,2013-04-01 08:43:00,
2013-04-01 03:53:00,36.0,24.0,-100.00,North,5,0.0,0.0,61,-99.99,,,-99.99,,2013-04-01 08:53:00,
2013-04-01 04:02:00,36.0,24.0,-100.00,North,5,0.0,0.0,61,-99.99,,,-99.99,,2013-04-01 09:02:00,
2013-04-01 04:12:00,35.0,24.0,-100.00,North,0,0.0,0.0,62,-99.99,,,-99.99,,2013-04-01 09:12:00,
2013-04-01 04:22:00,35.0,23.0,-100.00,NNW,340,0.0,0.0,62,-99.99,,,-99.99,,2013-04-01 09:22:00,
2013-04-01 04:33:00,35.0,23.0,-100.00,NNW,340,0.0,0.0,62,-99.99,,,-99.99,,2013-04-01 09:33:00,
2013-04-01 04:42:00,35.0,24.0,-100.00,North,0,0.0,0.0,64,-99.99,,,-99.99,,2013-04-01 09:42:00,
2013-04-01 04:53:00,35.0,24.0,-100.00,North,0,0.0,0.0,65,-99.99,,,-99.99,,2013-04-01 09:53:00,
2013-04-01 05:03:00,35.0,24.0,-100.00,North,0,0.0,0.0,65,-99.99,,,-99.99,,2013-04-01 10:03:00,
2013-04-01 05:12:00,34.0,24.0,-100.00,NNW,335,0.0,0.0,67,-99.99,,,-99.99,,2013-04-01 10:12:00,
2013-04-01 05:23:00,34.0,24.0,-100.00,North,0,0.0,0.0,67,-99.99,,,-99.99,,2013-04-01 10:23:00,
2013-04-01 05:33:00,34.0,24.0,-100.00,North,0,0.0,0.0,67,-99.99,,,-99.99,,2013-04-01 10:33:00,
2013-04-01 05:42:00,33.0,24.0,-100.00,North,350,0.0,0.0,69,-99.99,,,-99.99,,2013-04-01 10:42:00,
2013-04-01 05:53:00,32.0,24.0,-100.00,NNW,340,0.0,0.0,72,-99.99,,,-99.99,,2013-04-01 10:53:00,
2013-04-01 06:03:00,32.0,24.0,-100.00,NNW,340,0.0,0.0,72,-99.99,,,-99.99,,2013-04-01 11:03:00,
2013-04-01 06:13:00,31.0,24.0,-100.00,NNW,340,0.0,0.0,74,-99.99,,,-99.99,,2013-04-01 11:13:00,
2013-04-01 06:23:00,30.0,23.0,-100.00,NNW,345,0.0,0.0,75,-99.99,,,-99.99,,2013-04-01 11:23:00,
2013-04-01 06:33:00,30.0,23.0,-100.00,NNW,345,0.0,0.0,75,-99.99,,,-99.99,,2013-04-01 11:33:00,
2013-04-01 06:42:00,30.0,24.0,-100.00,NNW,340,0.0,0.0,78,-99.99,,,-99.99,,2013-04-01 11:42:00,
2013-04-01 06:53:00,29.0,24.0,-100.00,NNW,340,0.0,0.0,80,-99.99,,,-99.99,,2013-04-01 11:53:00,
2013-04-01 07:02:00,29.0,24.0,-100.00,NNW,340,0.0,0.0,80,-99.99,,,-99.99,,2013-04-01 12:02:00,
2013-04-01 07:12:00,29.0,24.0,-100.00,North,0,0.0,0.0,82,-99.99,,,-99.99,,2013-04-01 12:12:00,
2013-04-01 07:23:00,29.0,24.0,-100.00,NNW,345,0.0,0.0,83,-99.99,,,-99.99,,2013-04-01 12:23:00,
2013-04-01 07:32:00,29.0,24.0,-100.00,NNW,345,0.0,0.0,83,-99.99,,,-99.99,,2013-04-01 12:32:00,
2013-04-01 07:42:00,29.0,25.0,-100.00,NW,325,0.0,0.0,84,-99.99,,,-99.99,,2013-04-01 12:42:00,
2013-04-01 07:53:00,29.0,25.0,-100.00,NNW,345,0.0,0.0,84,-99.99,,,-99.99,,2013-04-01 12:53:00,
2013-04-01 08:03:00,29.0,25.0,-100.00,NNW,345,0.0,0.0,84,-99.99,,,-99.99,,2013-04-01 13:03:00,
2013-04-01 08:12:00,30.0,25.0,-100.00,NNW,345,0.0,0.0,82,-99.99,,,-99.99,,2013-04-01 13:12:00,
2013-04-01 08:22:00,31.0,25.0,-100.00,NNW,345,0.0,0.0,80,-99.99,,,-99.99,,2013-04-01 13:22:00,
2013-04-01 08:32:00,31.0,25.0,-100.00,NNW,345,0.0,0.0,80,-99.99,,,-99.99,,2013-04-01 13:32:00,
2013-04-01 08:42:00,31.0,25.0,-100.00,NNW,340,0.0,0.0,78,-99.99,,,-99.99,,2013-04-01 13:42:00,
2013-04-01 08:53:00,31.0,25.0,-100.00,NNW,340,0.0,0.0,77,-99.99,,,-99.99,,2013-04-01 13:53:00,
2013-04-01 09:03:00,31.0,25.0,-100.00,NNW,340,0.0,0.0,77,-99.99,,,-99.99,,2013-04-01 14:03:00,
2013-04-01 09:12:00,32.0,25.0,-100.00,North,0,0.0,0.0,76,-99.99,,,-99.99,,2013-04-01 14:12:00,
2013-04-01 09:22:00,33.0,26.0,-100.00,North,355,0.0,0.0,75,-99.99,,,-99.99,,2013-04-01 14:22:00,
2013-04-01 09:33:00,33.0,26.0,-100.00,North,355,0.0,0.0,75,-99.99,,,-99.99,,2013-04-01 14:33:00,
2013-04-01 09:42:00,33.0,26.0,-100.00,NNW,340,0.0,0.0,73,-99.99,,,-99.99,,2013-04-01 14:42:00,
2013-04-01 09:53:00,34.0,25.0,-100.00,North,10,0.0,0.0,71,-99.99,,,-99.99,,2013-04-01 14:53:00,
2013-04-01 10:03:00,34.0,25.0,-100.00,North,10,0.0,0.0,71,-99.99,,,-99.99,,2013-04-01 15:03:00,
2013-04-01 10:13:00,35.0,26.0,-100.00,NNW,340,0.0,0.0,69,-99.99,,,-99.99,,2013-04-01 15:13:00,
2013-04-01 10:22:00,35.0,25.0,-100.00,North,0,0.0,0.0,67,-99.99,,,-99.99,,2013-04-01 15:22:00,
2013-04-01 10:34:00,35.0,25.0,-100.00,North,0,0.0,0.0,67,-99.99,,,-99.99,,2013-04-01 15:34:00,
2013-04-01 10:43:00,36.0,26.0,-100.00,NE,35,0.0,0.0,65,-99.99,,,-99.99,,2013-04-01 15:43:00,
2013-04-01 10:54:00,37.0,26.0,-100.00,NNW,330,0.0,0.0,63,-99.99,,,-99.99,,2013-04-01 15:54:00,
2013-04-01 11:03:00,37.0,26.0,-100.00,NNW,330,0.0,0.0,63,-99.99,,,-99.99,,2013-04-01 16:03:00,
2013-04-01 11:13:00,38.0,26.0,-100.00,NNW,345,0.0,0.0,61,-99.99,,,-99.99,,2013-04-01 16:13:00,
2013-04-01 11:23:00,37.0,24.0,-100.00,NNW,340,0.0,0.0,58,-99.99,,,-99.99,,2013-04-01 16:23:00,
2013-04-01 11:33:00,37.0,24.0,-100.00,NNW,340,0.0,0.0,58,-99.99,,,-99.99,,2013-04-01 16:33:00,
2013-04-01 11:42:00,37.0,24.0,-100.00,NNW,340,0.0,0.0,58,-99.99,,,-99.99,,2013-04-01 16:42:00,
2013-04-01 12:42:00,40.0,22.0,-100.00,North,0,0.0,0.0,48,-99.99,,,-99.99,,2013-04-01 17:42:00,
2013-04-01 12:53:00,42.0,23.0,-100.00,NNW,345,0.0,0.0,48,-99.99,,,-99.99,,2013-04-01 17:53:00,
2013-04-01 13:02:00,42.0,23.0,-100.00,NNW,345,0.0,0.0,48,-99.99,,,-99.99,,2013-04-01 18:02:00,
2013-04-01 13:12:00,43.0,23.0,-100.00,NW,310,0.0,0.0,45,-99.99,,,-99.99,,2013-04-01 18:12:00,
2013-04-01 13:22:00,42.0,22.0,-100.00,NW,315,0.0,0.0,44,-99.99,,,-99.99,,2013-04-01 18:22:00,
2013-04-01 13:32:00,42.0,22.0,-100.00,NW,315,0.0,0.0,44,-99.99,,,-99.99,,2013-04-01 18:32:00,
2013-04-01 13:42:00,43.0,22.0,-100.00,NNW,345,0.0,0.0,43,-99.99,,,-99.99,,2013-04-01 18:42:00,
2013-04-01 13:53:00,42.0,21.0,-100.00,NNW,345,0.0,0.0,43,-99.99,,,-99.99,,2013-04-01 18:53:00,
2013-04-01 14:03:00,42.0,21.0,-100.00,NNW,345,0.0,0.0,43,-99.99,,,-99.99,,2013-04-01 19:03:00,
2013-04-01 14:13:00,43.0,21.0,-100.00,North,0,0.0,0.0,41,-99.99,,,-99.99,,2013-04-01 19:13:00,
2013-04-01 14:23:00,44.0,22.0,-100.00,NW,305,0.0,0.0,42,-99.99,,,-99.99,,2013-04-01 19:23:00,
2013-04-01 14:32:00,44.0,22.0,-100.00,NW,305,0.0,0.0,42,-99.99,,,-99.99,,2013-04-01 19:32:00,
2013-04-01 14:42:00,44.0,20.0,-100.00,North,0,0.0,0.0,38,-99.99,,,-99.99,,2013-04-01 19:42:00,
2013-04-01 14:53:00,43.0,20.0,-100.00,NNW,345,0.0,0.0,39,-99.99,,,-99.99,,2013-04-01 19:53:00,
2013-04-01 15:02:00,43.0,20.0,-100.00,NNW,345,0.0,0.0,39,-99.99,,,-99.99,,2013-04-01 20:02:00,
2013-04-01 15:13:00,44.0,21.0,-100.00,NW,325,0.0,0.0,39,-99.99,,,-99.99,,2013-04-01 20:13:00,
2013-04-01 15:22:00,44.0,19.0,-100.00,North,0,0.0,0.0,36,-99.99,,,-99.99,,2013-04-01 20:22:00,
2013-04-01 15:32:00,44.0,19.0,-100.00,North,0,0.0,0.0,36,-99.99,,,-99.99,,2013-04-01 20:32:00,
2013-04-01 15:42:00,45.0,19.0,-100.00,NNW,330,0.0,0.0,36,-99.99,,,-99.99,,2013-04-01 20:42:00,
2013-04-01 15:52:00,45.0,19.0,-100.00,WNW,295,0.0,0.0,36,-99.99,,,-99.99,,2013-04-01 20:52:00,
2013-04-01 16:02:00,45.0,19.0,-100.00,WNW,295,0.0,0.0,36,-99.99,,,-99.99,,2013-04-01 21:02:00,
2013-04-01 16:12:00,46.0,20.0,-100.00,NW,325,0.0,0.0,35,-99.99,,,-99.99,,2013-04-01 21:12:00,
2013-04-01 16:23:00,45.0,18.0,-100.00,NW,320,0.0,0.0,34,-99.99,,,-99.99,,2013-04-01 21:23:00,
2013-04-01 16:32:00,45.0,18.0,-100.00,NW,320,0.0,0.0,34,-99.99,,,-99.99,,2013-04-01 21:32:00,
2013-04-01 16:43:00,46.0,19.0,-100.00,NW,320,0.0,0.0,34,-99.99,,,-99.99,,2013-04-01 21:43:00,
2013-04-01 16:53:00,45.0,18.0,-100.00,North,350,0.0,0.0,34,-99.99,,,-99.99,,2013-04-01 21:53:00,
2013-04-01 17:02:00,45.0,18.0,-100.00,North,350,0.0,0.0,34,-99.99,,,-99.99,,2013-04-01 22:02:00,
2013-04-01 17:12:00,45.0,18.0,-100.00,NNW,345,0.0,0.0,34,-99.99,,,-99.99,,2013-04-01 22:12:00,
2013-04-01 17:22:00,44.0,17.0,-100.00,North,355,0.0,0.0,33,-99.99,,,-99.99,,2013-04-01 22:22:00,
2013-04-01 17:33:00,44.0,17.0,-100.00,North,355,0.0,0.0,33,-99.99,,,-99.99,,2013-04-01 22:33:00,
2013-04-01 17:43:00,45.0,18.0,-100.00,NNW,330,0.0,0.0,33,-99.99,,,-99.99,,2013-04-01 22:43:00,
2013-04-01 17:52:00,44.0,17.0,-100.00,NW,315,0.0,0.0,33,-99.99,,,-99.99,,2013-04-01 22:52:00,
2013-04-01 18:02:00,44.0,17.0,-100.00,NW,315,0.0,0.0,33,-99.99,,,-99.99,,2013-04-01 23:02:00,
2013-04-01 18:12:00,44.0,16.0,-100.00,NNW,330,0.0,0.0,33,-99.99,,,-99.99,,2013-04-01 23:12:00,
2013-04-01 18:23:00,44.0,17.0,-100.00,North,0,0.0,0.0,34,-99.99,,,-99.99,,2013-04-01 23:23:00,
2013-04-01 18:32:00,44.0,17.0,-100.00,North,0,0.0,0.0,34,-99.99,,,-99.99,,2013-04-01 23:32:00,
2013-04-01 18:43:00,43.0,18.0,-100.00,NW,305,0.0,0.0,35,-99.99,,,-99.99,,2013-04-01 23:43:00,
2013-04-01 18:53:00,43.0,17.0,-100.00,NNW,335,0.0,0.0,35,-99.99,,,-99.99,,2013-04-01 23:53:00,
2013-04-01 19:03:00,43.0,17.0,-100.00,NNW,335,0.0,0.0,35,-99.99,,,-99.99,,2013-04-02 00:03:00,
2013-04-01 19:12:00,42.0,17.0,-100.00,NW,315,0.0,0.0,35,-99.99,,,-99.99,,2013-04-02 00:12:00,
2013-04-01 19:22:00,42.0,16.0,-100.00,NNW,340,0.0,0.0,35,-99.99,,,-99.99,,2013-04-02 00:22:00,
2013-04-01 19:33:00,42.0,16.0,-100.00,NNW,340,0.0,0.0,35,-99.99,,,-99.99,,2013-04-02 00:33:00,
2013-04-01 19:42:00,41.0,17.0,-100.00,NNW,345,0.0,0.0,37,-99.99,,,-99.99,,2013-04-02 00:42:00,
2013-04-01 19:53:00,40.0,16.0,-100.00,North,355,0.0,0.0,38,-99.99,,,-99.99,,2013-04-02 00:53:00,
2013-04-01 20:02:00,40.0,16.0,-100.00,North,355,0.0,0.0,38,-99.99,,,-99.99,,2013-04-02 01:02:00,
2013-04-01 20:12:00,38.0,17.0,-100.00,North,350,0.0,0.0,41,-99.99,,,-99.99,,2013-04-02 01:12:00,
2013-04-01 20:22:00,37.0,16.0,-100.00,North,355,0.0,0.0,42,-99.99,,,-99.99,,2013-04-02 01:22:00,
2013-04-01 20:32:00,37.0,16.0,-100.00,North,355,0.0,0.0,42,-99.99,,,-99.99,,2013-04-02 01:32:00,
2013-04-01 20:42:00,36.0,16.0,-100.00,NNW,340,0.0,0.0,43,-99.99,,,-99.99,,2013-04-02 01:42:00,
2013-04-01 20:53:00,35.0,17.0,-100.00,NNW,340,0.0,0.0,46,-99.99,,,-99.99,,2013-04-02 01:53:00,
2013-04-01 21:02:00,35.0,17.0,-100.00,NNW,340,0.0,0.0,46,-99.99,,,-99.99,,2013-04-02 02:02:00,
2013-04-01 21:12:00,34.0,17.0,-100.00,NW,325,0.0,0.0,49,-99.99,,,-99.99,,2013-04-02 02:12:00,
2013-04-01 21:22:00,34.0,18.0,-100.00,NNW,335,0.0,0.0,51,-99.99,,,-99.99,,2013-04-02 02:22:00,
2013-04-01 21:32:00,34.0,18.0,-100.00,NNW,335,0.0,0.0,51,-99.99,,,-99.99,,2013-04-02 02:32:00,
2013-04-01 21:42:00,33.0,18.0,-100.00,NNW,340,0.0,0.0,52,-99.99,,,-99.99,,2013-04-02 02:42:00,
2013-04-01 21:53:00,34.0,18.0,-100.00,NNW,345,0.0,0.0,53,-99.99,,,-99.99,,2013-04-02 02:53:00,
2013-04-01 22:02:00,34.0,18.0,-100.00,NNW,345,0.0,0.0,53,-99.99,,,-99.99,,2013-04-02 03:02:00,
2013-04-01 22:12:00,33.0,18.0,-100.00,North,355,0.0,0.0,54,-99.99,,,-99.99,,2013-04-02 03:12:00,
2013-04-01 22:22:00,32.0,18.0,-100.00,NNW,345,0.0,0.0,56,-99.99,,,-99.99,,2013-04-02 03:22:00,
2013-04-01 22:33:00,32.0,18.0,-100.00,NNW,345,0.0,0.0,56,-99.99,,,-99.99,,2013-04-02 03:33:00,
2013-04-01 22:43:00,32.0,19.0,-100.00,North,0,0.0,0.0,57,-99.99,,,-99.99,,2013-04-02 03:43:00,
2013-04-01 22:53:00,31.0,19.0,-100.00,NNW,335,0.0,0.0,59,-99.99,,,-99.99,,2013-04-02 03:53:00,
2013-04-01 23:03:00,31.0,19.0,-100.00,NNW,335,0.0,0.0,59,-99.99,,,-99.99,,2013-04-02 04:03:00,
2013-04-01 23:13:00,31.0,19.0,-100.00,NNW,340,0.0,0.0,62,-99.99,,,-99.99,,2013-04-02 04:13:00,
2013-04-01 23:23:00,30.0,19.0,-100.00,North,350,0.0,0.0,63,-99.99,,,-99.99,,2013-04-02 04:23:00,
2013-04-01 23:32:00,30.0,19.0,-100.00,North,350,0.0,0.0,63,-99.99,,,-99.99,,2013-04-02 04:32:00,
2013-04-01 23:43:00,30.0,20.0,-100.00,North,0,0.0,0.0,65,-99.99,,,-99.99,,2013-04-02 04:43:00,
2013-04-01 23:53:00,30.0,20.0,-100.00,NW,320,0.0,0.0,67,-99.99,,,-99.99,,2013-04-02 04:53:00,